GW0518 Weather Reports


Display with metric or nautical units.
time (UTC)temp
F
wind
direction
speed
MPH
gust
MPH
rain 1hr
in
rain 24hr
in
rain mn
in
humidity
%
barometer
mb
20260510230829 53 5 5.0 12.0 0.00 0.28 0.00 44 1018.0
20260510230328 54 310 5.0 10.0 0.00 0.28 0.00 45 1018.0
20260510225828 54 300 5.0 13.0 0.00 0.28 0.00 45 1017.9
20260510225329 54 5 5.0 13.0 0.00 0.28 0.00 45 1017.9
20260510224828 54 340 5.0 15.0 0.00 0.28 0.00 44 1017.9
20260510224331 54 347 7.0 15.0 0.00 0.28 0.00 44 1017.8
20260510223829 54 11 8.0 13.0 0.00 0.28 0.00 44 1017.8
20260510223329 55 40 7.0 12.0 0.00 0.28 0.00 43 1017.7
20260510223050 55 0 6.0 14.0 0.00 0.28 0.00 44 1017.6
20260510221828 55 36 7.0 17.0 0.00 0.28 0.00 45 1017.7
20260510221329 55 333 7.0 17.0 0.00 0.28 0.00 43 1017.6
20260510220828 55 355 7.0 18.0 0.00 0.28 0.00 44 1017.5
20260510220329 55 355 8.0 18.0 0.00 0.28 0.00 43 1017.6
20260510220051 55 12 8.0 15.0 0.00 0.28 0.00 46 1017.5
20260510215330 55 0 8.0 17.0 0.00 0.28 0.00 43 1017.5
20260510214828 55 341 7.0 17.0 0.00 0.28 0.00 45 1017.4
20260510214329 55 15 7.0 14.0 0.00 0.28 0.00 45 1017.3
20260510213828 55 5 7.0 13.0 0.00 0.28 0.00 44 1017.2
20260510213329 55 302 6.0 14.0 0.00 0.28 0.00 45 1017.2
20260510212829 55 349 7.0 16.0 0.00 0.28 0.00 44 1017.2
20260510212329 55 14 8.0 18.0 0.00 0.28 0.00 45 1017.0
20260510211828 55 0 8.0 20.0 0.00 0.28 0.00 46 1017.1
20260510211329 55 331 8.0 20.0 0.00 0.28 0.00 45 1017.0
20260510210828 55 11 7.0 20.0 0.00 0.28 0.00 46 1016.9
20260510210329 56 315 6.0 13.0 0.00 0.28 0.00 44 1016.7
20260510205828 56 355 5.0 13.0 0.00 0.28 0.00 45 1016.8
20260510205329 56 5 5.0 13.0 0.00 0.28 0.00 48 1016.7
20260510204828 56 20 8.0 16.0 0.00 0.28 0.00 44 1016.7
20260510204329 56 15 9.0 16.0 0.00 0.28 0.00 47 1016.6
20260510203828 56 22 8.0 16.0 0.00 0.28 0.00 47 1016.6
20260510203546 56 355 7.0 16.0 0.00 0.28 0.00 46 1016.4
20260510202829 56 39 7.0 13.0 0.00 0.28 0.00 50 1016.1
20260510202328 56 5 8.0 17.0 0.00 0.28 0.00 49 1016.0
20260510201828 56 5 9.0 17.0 0.00 0.28 0.00 49 1016.0
20260510201328 56 23 9.0 17.0 0.00 0.28 0.00 52 1015.9
20260510200829 56 320 8.0 17.0 0.00 0.28 0.00 51 1015.9
20260510200328 56 32 7.0 13.0 0.00 0.28 0.00 55 1015.9
20260510200056 57 63 7.0 13.0 0.00 0.28 0.00 52 1015.8
20260510195330 57 355 6.0 14.0 0.00 0.28 0.00 55 1015.8
20260510194829 57 355 7.0 14.0 0.00 0.28 0.00 54 1015.9
20260510194328 57 46 7.0 14.0 0.00 0.28 0.00 57 1015.8
20260510193829 57 355 8.0 13.0 0.00 0.28 0.00 58 1015.8
20260510193328 56 348 8.0 15.0 0.00 0.28 0.00 57 1015.9
20260510192828 57 24 6.0 15.0 0.00 0.28 0.00 57 1015.9
20260510192329 57 0 6.0 14.0 0.00 0.28 0.00 56 1015.8
20260510191828 57 288 7.0 16.0 0.00 0.28 0.00 59 1015.8
20260510191329 56 42 8.0 16.0 0.00 0.28 0.00 57 1015.8
20260510190828 56 5 8.0 15.0 0.00 0.28 0.00 57 1015.8
20260510190328 56 26 9.0 16.0 0.00 0.28 0.00 61 1015.7
20260510185829 56 9 8.0 16.0 0.00 0.28 0.00 59 1015.7
20260510185329 57 44 7.0 17.0 0.00 0.28 0.00 60 1015.7
20260510184828 57 0 7.0 17.0 0.00 0.28 0.00 60 1015.6
20260510184328 57 16 7.0 13.0 0.00 0.28 0.00 61 1015.7
20260510183829 57 14 8.0 15.0 0.00 0.28 0.00 62 1015.6
20260510183328 57 13 8.0 15.0 0.00 0.28 0.00 62 1015.6
20260510182830 57 25 7.0 14.0 0.00 0.28 0.00 62 1015.5
20260510182550 56 29 6.0 12.0 0.00 0.28 0.00 64 1015.6
20260510181829 55 25 6.0 15.0 0.00 0.28 0.00 63 1015.5
20260510181328 56 15 7.0 15.0 0.00 0.28 0.00 62 1015.5
20260510180829 56 52 7.0 14.0 0.00 0.28 0.00 62 1015.4
20260510180328 56 355 7.0 14.0 0.00 0.28 0.00 64 1015.4
20260510175828 57 11 7.0 12.0 0.00 0.28 0.00 62 1015.2
20260510175549 57 11 6.0 13.0 0.00 0.28 0.00 63 1015.1
20260510175050 58 66 5.0 13.0 0.00 0.28 0.00 63 1015.0
20260510174328 57 340 5.0 10.0 0.00 0.28 0.00 62 1015.0
20260510173828 57 22 6.0 10.0 0.00 0.28 0.00 61 1014.9
20260510173328 58 11 5.0 11.0 0.00 0.28 0.00 61 1014.9
20260510172829 58 64 4.0 11.0 0.00 0.28 0.00 62 1014.9
20260510172328 57 308 3.0 11.0 0.00 0.28 0.00 62 1014.9
20260510171828 57 269 3.0 9.0 0.00 0.28 0.00 63 1014.8
20260510171328 58 75 4.0 9.0 0.00 0.28 0.00 61 1014.7
20260510170829 58 307 3.0 9.0 0.00 0.28 0.00 61 1014.7
20260510170328 56 229 3.0 9.0 0.00 0.28 0.00 59 1014.8
20260510165828 57 355 5.0 11.0 0.00 0.28 0.00 60 1014.8
20260510165328 58 355 4.0 11.0 0.00 0.28 0.00 58 1014.8
20260510164828 59 302 4.0 10.0 0.00 0.28 0.00 58 1014.9
20260510164547 58 306 3.0 10.0 0.00 0.28 0.00 60 1014.9
20260510163828 57 279 4.0 8.0 0.00 0.28 0.00 58 1014.9
20260510163328 58 5 5.0 13.0 0.00 0.28 0.00 60 1014.8
20260510163045 58 49 5.0 14.0 0.00 0.28 0.00 62 1014.8
20260510162328 59 252 4.0 14.0 0.00 0.28 0.00 59 1014.7
20260510161828 58 245 4.0 11.0 0.00 0.28 0.00 61 1014.8
20260510161547 58 298 4.0 11.0 0.00 0.28 0.00 58 1014.8
20260510160828 58 252 5.0 11.0 0.00 0.28 0.00 60 1014.7
20260510160328 58 332 4.0 11.0 0.00 0.28 0.00 61 1014.7
20260510155828 58 293 4.0 11.0 0.00 0.28 0.00 63 1014.7
20260510155328 57 290 4.0 10.0 0.00 0.28 0.00 62 1014.8
20260510154829 57 240 4.0 10.0 0.00 0.28 0.00 64 1014.7
20260510154328 56 302 4.0 11.0 0.00 0.28 0.00 62 1014.8
20260510153828 56 305 3.0 11.0 0.00 0.28 0.00 63 1014.9
20260510153327 56 247 5.0 11.0 0.00 0.28 0.00 64 1014.8
20260510152828 56 268 5.0 11.0 0.00 0.28 0.00 61 1014.7
20260510152328 56 338 5.0 12.0 0.00 0.28 0.00 63 1014.8
20260510151829 56 311 6.0 12.0 0.00 0.28 0.00 63 1014.7
20260510151327 56 0 6.0 11.0 0.00 0.28 0.00 62 1014.5
20260510150827 56 0 6.0 12.0 0.00 0.28 0.00 62 1014.4
20260510145827 55 287 3.0 10.0 0.00 0.28 0.00 63 1014.4
20260510145328 55 327 5.0 11.0 0.00 0.28 0.00 66 1014.3
20260510144828 54 244 5.0 11.0 0.00 0.28 0.00 63 1014.4
20260510144552 55 234 4.0 9.0 0.00 0.28 0.00 65 1014.4
20260510143828 55 299 3.0 10.0 0.00 0.28 0.00 67 1014.3
20260510143328 54 279 4.0 11.0 0.00 0.28 0.00 64 1014.2
20260510142831 54 283 4.0 11.0 0.00 0.28 0.00 64 1014.1
20260510142329 53 296 3.0 10.0 0.00 0.28 0.00 65 1014.1
20260510141828 53 300 2.0 8.0 0.00 0.28 0.00 69 1014.0
20260510141327 53 292 2.0 7.0 0.00 0.28 0.00 70 1013.9
20260510140828 52 255 2.0 7.0 0.00 0.28 0.00 67 1013.9
20260510140329 52 243 2.0 7.0 0.00 0.28 0.00 68 1013.9
20260510135828 52 302 2.0 7.0 0.00 0.28 0.00 70 1013.9
20260510135329 51 266 2.0 7.0 0.00 0.28 0.00 67 1013.9
20260510134828 52 246 1.0 5.0 0.00 0.28 0.00 71 1013.8
20260510134328 52 296 0.0 4.0 0.00 0.28 0.00 73 1013.7
20260510133828 51 296 1.0 5.0 0.00 0.28 0.00 73 1013.7
20260510133329 50 296 2.0 7.0 0.00 0.28 0.00 74 1013.7
20260510132827 50 294 2.0 7.0 0.00 0.28 0.00 74 1013.6
20260510132327 50 292 1.0 5.0 0.00 0.28 0.00 75 1013.7
20260510131828 49 292 1.0 5.0 0.00 0.28 0.00 76 1013.7
20260510131328 49 292 1.0 5.0 0.00 0.28 0.00 76 1013.7
20260510130828 49 292 1.0 5.0 0.00 0.28 0.00 76 1013.9
20260510130548 49 298 2.0 5.0 0.00 0.28 0.00 76 1013.8
20260510125828 49 298 2.0 5.0 0.00 0.28 0.00 76 1013.8
20260510125327 49 298 2.0 5.0 0.00 0.28 0.00 77 1013.8
20260510124828 48 298 2.0 5.0 0.00 0.28 0.00 78 1013.7
20260510124327 48 309 2.0 7.0 0.00 0.28 0.00 78 1013.6
20260510123828 48 308 1.0 7.0 0.00 0.28 0.00 80 1013.7
20260510122829 48 309 1.0 4.0 0.00 0.28 0.00 81 1013.6
20260510122551 48 312 1.0 4.0 0.00 0.28 0.00 82 1013.5
20260510121828 48 312 1.0 4.0 0.00 0.28 0.00 82 1013.6
20260510120829 48 312 1.0 4.0 0.00 0.28 0.00 83 1013.4
20260510120327 48 312 1.0 4.0 0.00 0.28 0.00 83 1013.4
20260510115827 48 312 1.0 4.0 0.00 0.28 0.00 84 1013.3
20260510115328 48 336 1.0 3.0 0.00 0.28 0.00 85 1013.1
20260510114827 48 338 0.0 3.0 0.00 0.28 0.00 85 1013.0
20260510114548 48 338 0.0 2.0 0.00 0.28 0.00 86 1012.9
20260510113327 48 338 1.0 3.0 0.00 0.28 0.00 86 1012.5
20260510112827 48 338 1.0 3.0 0.00 0.28 0.00 87 1012.5
20260510111827 47 338 1.0 5.0 0.00 0.28 0.00 87 1012.3
20260510111328 47 338 2.0 5.0 0.00 0.28 0.00 88 1012.1
20260510110827 47 322 2.0 4.0 0.00 0.28 0.00 89 1011.9
20260510110329 48 314 2.0 4.0 0.00 0.28 0.00 90 1011.7
20260510105827 48 314 2.0 9.0 0.00 0.28 0.00 91 1011.6
20260510105547 48 313 3.0 10.0 0.00 0.28 0.00 91 1011.7
20260510104827 48 9 4.0 10.0 0.00 0.28 0.00 92 1011.5
20260510104329 48 344 4.0 12.0 0.00 0.28 0.00 93 1011.4
20260510103828 48 351 3.0 12.0 0.00 0.28 0.00 93 1011.3
20260510103328 48 346 2.0 11.0 0.00 0.28 0.00 95 1011.2
20260510102828 48 336 1.0 4.0 0.00 0.28 0.00 95 1011.0
20260510102327 48 336 1.0 4.0 0.00 0.28 0.00 95 1011.0
20260510102052 48 338 2.0 5.0 0.00 0.28 0.00 95 1010.9
20260510101327 48 338 2.0 5.0 0.00 0.28 0.00 95 1010.7
20260510101048 49 337 2.0 4.0 0.00 0.28 0.00 95 1010.5
20260510100549 49 337 2.0 6.0 0.00 0.28 0.00 95 1010.3
20260510095828 49 333 2.0 6.0 0.00 0.28 0.00 95 1010.6
20260510095328 49 309 2.0 5.0 0.00 0.28 0.00 95 1010.6
20260510094827 49 307 2.0 5.0 0.00 0.28 0.00 96 1010.3
20260510094552 49 303 1.0 5.0 0.00 0.28 0.00 96 1010.3
20260510094051 50 288 1.0 4.0 0.00 0.28 0.00 96 1010.1
20260510093328 50 288 1.0 4.0 0.00 0.28 0.00 96 1009.9
20260510092828 50 288 1.0 3.0 0.00 0.28 0.00 96 1009.8
20260510092323 50 288 2.0 6.0 0.00 0.28 0.00 96 1009.6
20260510091823 50 288 2.0 6.0 0.00 0.28 0.00 96 1009.5
20260510091324 50 284 1.0 3.0 0.00 0.28 0.00 96 1009.5
20260510090823 50 284 2.0 4.0 0.00 0.28 0.00 96 1009.5
20260510090324 50 284 1.0 4.0 0.00 0.28 0.00 96 1009.6
20260510085823 50 253 0.0 3.0 0.00 0.28 0.00 96 1009.5
20260510085323 49 252 1.0 3.0 0.00 0.28 0.00 96 1009.4
20260510084823 49 252 1.0 3.0 0.00 0.28 0.00 96 1009.2
20260510084548 49 252 1.0 3.0 0.00 0.28 0.00 96 1009.2
20260510083824 49 252 1.0 3.0 0.00 0.28 0.00 96 1009.2
20260510083323 49 252 1.0 5.0 0.00 0.28 0.00 96 1009.1
20260510082824 49 252 2.0 5.0 0.00 0.28 0.00 96 1009.3
20260510082323 49 256 2.0 4.0 0.00 0.28 0.00 96 1009.2
20260510081823 49 256 2.0 4.0 0.00 0.28 0.00 95 1009.1
20260510081323 49 215 2.0 4.0 0.00 0.28 0.00 95 1009.0
20260510080823 49 215 2.0 4.0 0.00 0.28 0.00 95 1009.0
20260510080324 49 215 2.0 4.0 0.00 0.28 0.00 95 1009.0
20260510080046 49 206 2.0 5.0 0.00 0.28 0.00 95 1008.7
20260510075323 49 207 3.0 9.0 0.00 0.28 0.00 95 1008.7
20260510074824 48 213 3.0 9.0 0.00 0.28 0.00 95 1008.9
20260510074324 48 201 2.0 7.0 0.00 0.28 0.00 95 1008.9
20260510073824 48 188 2.0 6.0 0.00 0.28 0.00 95 1008.7
20260510073323 48 190 2.0 6.0 0.00 0.28 0.00 95 1008.5
20260510072824 48 217 2.0 5.0 0.00 0.28 0.00 95 1008.4
20260510072323 49 221 2.0 5.0 0.00 0.28 0.00 95 1008.4
20260510071823 49 197 2.0 6.0 0.00 0.28 0.00 95 1008.4
20260510071323 49 197 2.0 6.0 0.00 0.28 0.00 95 1008.5
20260510070823 49 232 2.0 6.0 0.00 0.28 0.00 95 1008.6
20260510070324 49 192 2.0 6.0 0.00 0.28 0.00 95 1008.6
20260510065823 49 190 2.0 8.0 0.00 0.28 0.00 95 1008.6
20260510065324 49 196 3.0 8.0 0.00 0.28 0.00 95 1008.4
20260510065049 49 223 3.0 6.0 0.00 0.28 0.00 95 1008.3
20260510064322 49 180 3.0 9.0 0.00 0.28 0.00 95 1008.1
20260510063823 49 208 3.0 9.0 0.00 0.28 0.00 95 1008.1
20260510063551 49 219 2.0 8.0 0.00 0.28 0.00 95 1007.9
20260510062823 49 221 3.0 7.0 0.00 0.28 0.00 95 1008.0
20260510062323 49 220 2.0 7.0 0.00 0.28 0.00 95 1008.2
20260510061823 49 242 3.0 7.0 0.00 0.28 0.00 95 1008.1
20260510061323 49 186 3.0 8.0 0.00 0.28 0.00 95 1008.0
20260510060823 49 181 3.0 8.0 0.00 0.28 0.00 95 1007.8
20260510060547 49 190 2.0 7.0 0.00 0.28 0.00 95 1008.1
20260510055823 49 193 2.0 5.0 0.00 0.28 0.00 95 1008.2
20260510055323 49 192 3.0 5.0 0.00 0.28 0.00 94 1008.3
20260510054823 49 194 2.0 5.0 0.00 0.28 0.00 94 1008.4
20260510054323 49 191 2.0 6.0 0.00 0.28 0.00 94 1008.4
20260510054041 49 189 3.0 8.0 0.00 0.28 0.00 94 1008.4
20260510053323 49 192 2.0 8.0 0.00 0.28 0.00 94 1008.5
20260510052322 49 209 2.0 6.0 0.00 0.28 0.00 94 1008.5
20260510051823 50 180 2.0 6.0 0.00 0.28 0.00 94 1008.4
20260510051322 50 221 2.0 9.0 0.00 0.28 0.00 94 1008.4
20260510050823 50 197 3.0 11.0 0.00 0.28 0.00 94 1008.4
20260510050323 50 207 3.0 11.0 0.00 0.28 0.00 94 1008.5
20260510045822 50 191 3.0 10.0 0.00 0.28 0.00 94 1008.4
20260510045540 50 193 3.0 8.0 0.00 0.28 0.00 94 1008.4
20260510045051 50 224 4.0 8.0 0.00 0.28 0.00 94 1008.4
20260510044544 50 197 4.0 11.0 0.00 0.28 0.00 94 1008.3
20260510043822 50 223 4.0 11.0 0.00 0.28 0.00 94 1008.2
20260510043321 50 213 3.0 9.0 0.00 0.28 0.00 94 1008.1
20260510042821 51 200 3.0 9.0 0.01 0.28 0.00 94 1008.0
20260510042323 51 211 3.0 11.0 0.02 0.28 0.00 94 1007.9
20260510041821 51 204 3.0 11.0 0.03 0.28 0.00 93 1007.9
20260510041322 51 234 4.0 13.0 0.04 0.28 0.00 94 1008.0
20260510040821 51 238 4.0 13.0 0.05 0.28 0.00 93 1007.9
20260510040322 51 191 3.0 11.0 0.06 0.28 0.00 93 1008.0
20260510035820 51 175 3.0 11.0 0.08 0.28 0.28 93 1008.0
20260510035317 51 188 3.0 11.0 0.11 0.28 0.28 93 1007.9
20260510034820 51 190 4.0 7.0 0.14 0.28 0.28 93 1007.8
20260510034316 51 180 4.0 9.0 0.17 0.28 0.28 93 1007.6
20260510033817 51 169 4.0 9.0 0.18 0.28 0.28 93 1007.6
20260510033316 51 190 4.0 8.0 0.20 0.28 0.28 92 1007.7
20260510032815 52 187 3.0 6.0 0.20 0.27 0.27 92 1007.7
20260510032315 52 188 3.0 9.0 0.20 0.26 0.25 92 1007.8
20260510031815 52 222 3.0 9.0 0.21 0.25 0.25 92 1007.9
20260510031313 52 195 4.0 9.0 0.22 0.24 0.24 91 1008.0
20260510030814 52 218 4.0 9.0 0.22 0.23 0.22 91 1008.2
20260510030311 52 212 4.0 11.0 0.22 0.22 0.21 91 1008.1
20260510025812 52 240 4.0 11.0 0.20 0.20 0.19 91 1008.4
20260510025312 53 262 4.0 13.0 0.17 0.17 0.17 90 1008.5
20260510024812 53 273 4.0 13.0 0.14 0.14 0.14 90 1008.5
20260510024312 53 246 3.0 10.0 0.11 0.11 0.11 90 1008.7
20260510023811 53 288 4.0 14.0 0.10 0.10 0.10 89 1008.7
20260510023311 53 265 4.0 14.0 0.08 0.08 0.08 89 1008.8
20260510022813 54 298 3.0 10.0 0.07 0.07 0.07 88 1008.6
20260510022536 54 280 3.0 10.0 0.06 0.06 0.05 87 1008.5
20260510021812 54 275 3.0 11.0 0.04 0.04 0.04 87 1008.4
20260510021311 55 249 4.0 11.0 0.02 0.02 0.02 86 1008.4
20260510020811 55 244 5.0 15.0 0.01 0.01 0.01 86 1008.4
20260510020312 55 331 6.0 19.0 0.00 0.00 0.00 85 1008.2
20260510020030 56 281 5.0 19.0 0.00 0.00 0.00 86 1008.1
20260510015312 56 293 5.0 11.0 0.00 0.00 0.00 87 1007.8
20260510014812 56 222 4.0 11.0 0.00 0.00 0.00 87 1006.6
20260510014527 56 187 5.0 10.0 0.00 0.00 0.00 87 1006.3
20260510013812 56 190 5.0 14.0 0.00 0.00 0.00 87 1006.3
20260510013312 56 195 5.0 14.0 0.00 0.00 0.00 87 1006.1
20260510012811 56 182 5.0 10.0 0.00 0.00 0.00 86 1006.0
20260510012311 56 211 5.0 10.0 0.00 0.00 0.00 86 1006.0
20260510012030 56 197 4.0 9.0 0.00 0.00 0.00 86 1006.1
20260510011538 56 196 4.0 10.0 0.00 0.00 0.00 85 1006.0
20260510010811 56 206 4.0 11.0 0.00 0.00 0.00 85 1005.9
20260510010313 56 200 4.0 11.0 0.00 0.00 0.00 85 1005.9
20260510005811 56 211 4.0 13.0 0.00 0.00 0.00 85 1005.9
20260510005313 56 198 4.0 13.0 0.00 0.00 0.00 85 1005.7
20260510004812 56 185 4.0 13.0 0.00 0.00 0.00 85 1005.6
20260510004311 56 205 4.0 13.0 0.00 0.00 0.00 85 1005.5
20260510003811 56 193 4.0 11.0 0.00 0.00 0.00 85 1005.4
20260510003311 56 197 4.0 11.0 0.00 0.00 0.00 85 1005.5
20260510002312 56 175 5.0 12.0 0.00 0.00 0.00 84 1005.5
20260510001311 56 210 4.0 11.0 0.00 0.00 0.00 83 1005.6
20260510001030 57 173 4.0 9.0 0.00 0.00 0.00 82 1005.5
20260510000532 57 203 4.0 9.0 0.00 0.00 0.00 82 1005.6
20260509235811 57 174 4.0 10.0 0.00 0.00 0.00 82 1005.7
20260509235311 57 197 4.0 10.0 0.00 0.00 0.00 81 1005.8
20260509234812 58 220 4.0 12.0 0.00 0.00 0.00 81 1005.7
20260509234312 58 199 4.0 12.0 0.00 0.00 0.00 80 1005.6
20260509233811 58 186 4.0 9.0 0.00 0.00 0.00 79 1005.5
20260509233312 58 185 4.0 9.0 0.00 0.00 0.00 79 1005.7
20260509232811 59 225 4.0 11.0 0.00 0.00 0.00 79 1005.6
20260509232312 59 199 5.0 11.0 0.00 0.00 0.00 79 1005.4
20260509231811 59 194 5.0 14.0 0.00 0.00 0.00 79 1005.5
20260509231312 60 188 5.0 14.0 0.00 0.00 0.00 78 1005.6